NOAA 16 DEB, 41229

Orbit data source: Space-Track

NOAA 16 DEB, 41229 is space debris in SSO originally from a launch on Thu, 21 Sep 2000 UTC launched from the Air Force Western Test Range (AFWTR). Debris objects in space refer to the collection of defunct objects orbiting the Earth. Examples of debris include non-operational satellites, rocket bodies, and fragments generated from explosions, collisions, or faulty payload assembly.

Loading next visibility...
Identifier
41229, 2000-055EJ
Orbit
SSO
Country
Flag of USUS
Related business
Manufacturer
Unknown
Mission
Spacecraft
Bus & Motor
Unknown
Mass
Unknown
Launch date (UTC)
2000-09-21 (26 years ago)
Launch vehicle
Unknown
Launch site
Air Force Western Test Range (AFWTR)
Object type
Payload
Rocket body
Debris
Shape & HBR
Unknown shape, 0.1 m
Radar Cross Section
Medium (>0.1 m² and <1 m²)

Expand to show TLE details & history
Last TLE update: 3 days ago

TLE from 3 days ago
0 NOAA 16 DEB
1 41229U 00055EJ  26252.42176725  .00003195  00000-0  13589-2 0  9995
2 41229  98.9218 311.1999 0055992   2.0571 358.0827 14.25107349551656
Epoch: 2026-09-09T10:07Z
TLE epoch observation values (Epoch: 2026-09-09T10:07:20.690Z)
Latitude
-0.00009°
Longitude
170.88964°
Altitude
770.824 km
Speed
7.49 km/s
True Right ascension
20h 44m 47s
True Declination
0° 00' 00"
Sunlit
Object was in full shadow at epoch
Visualization orbit readout
Latitude
Unknown
Longitude
Unknown
Altitude
Unknown
Speed
Unknown
Apparent Right ascension
Unknown
Apparent Declination
Unknown
Sunlit
N/A
Visualization observer readout
Local Sidereal Time
15:24:58
Azimuth
Unknown
Elevation
Unknown
Doppler factor
Unknown
Orbital elements
Apogee altitude
845.515 km
Perigee altitude
765.072 km
Semi-major axis
7,183.431 km
Eccentricity
0.0056
Inclination
98.9218°
RAAN
311.1999°
Arg. of periapsis
2.0571°
True anomaly
358.06108°
Mean anomaly
358.0827°
Eccentric anomaly
358.07191°
Mean motion
3.56488 °/min
Orbital period
100.99 mins
BSTAR
0.0013589
Loading maneuver chart data...
Computing Atmospheric mass density...
Loading historical data...
Loading historical data...
Loading historical data...
Loading historical data...
Loading historical data...
Loading historical data...
Loading historical data...

Documentation

Showing up to 5 results
|